Flag for Switzerland Weather past 2 weeks in Versoix, Geneva, Switzerland

Now
34 °F

Scattered clouds.


Feels Like: 34 °F
Forecast: 32 / 39 °F
Wind: 2 mph from South

Location: Geneve-Cointrin

Current Time: Dec 26, 2014 at 11:18:18 AM

Latest Report: Dec 26, 2014 at 10:00 AM


Visibility: 28 mi

Pressure: 30.51 "Hg

Humidity: 77%

Dew point: 28 °F

Location of VersoixLocation

Historic Weather in Versoix — Graph

°F

Versoix temperature yesterday

Maximum temperature yesterday: 51 °F (at 3:00 PM)
Minimum temperature yesterday: 34 °F (at 10:00 PM)
Average temperature yesterday: 41 °F

Past Weeks' High & Low Weather Summary

 TemperatureHumidityPressure
High56 °F (Dec 19, 2:00 PM)97% (Dec 16, 6:00 AM)30.63 "Hg (Dec 16, 6:00 AM)
Low26 °F (Dec 23, 8:00 AM)38% (Dec 23, 2:00 PM)29.92 "Hg (Dec 13, 4:00 AM)
Average42 °F80%30.26 "Hg
* Reported Dec 11 10:00 AM — Dec 26 10:00 AM, Versoix, Weather by CustomWeather, © 2014

Note: Actual official high and low records may vary slightly from our data, if they occured in-between our weather recording intervals... More about our weather records

Advertising

Versoix weather history for previous 24 hours

 ConditionsComfort  
Time TempWeatherWind HumidityBarometerVisibility
10:00 AM
Dec 26
34 °FScattered clouds.2 mph77%30.51 "Hg28 mi
9:00 AM31 °FChilly.1 mph85%30.52 "HgN/A
8:00 AM30 °FChilly.3 mph84%30.52 "HgN/A
7:00 AM31 °FPassing clouds.1 mph83%30.51 "Hg22 mi
6:00 AM30 °FChilly.2 mph87%30.50 "HgN/A
5:00 AM33 °FChilly.1 mph81%30.50 "HgN/A
4:00 AM33 °FPassing clouds.5 mph79%30.50 "Hg19 mi
3:00 AM35 °FChilly.1 mph78%30.51 "HgN/A
2:00 AM33 °FChilly.2 mph80%30.50 "HgN/A
1:00 AM34 °FPassing clouds.3 mph78%30.49 "Hg19 mi
12:00 AM33 °FChilly.3 mph78%30.50 "HgN/A
11:00 PM
Dec 25
34 °FChilly.2 mph71%30.49 "HgN/A
10:00 PM34 °FPassing clouds.3 mph70%30.50 "Hg19 mi
9:00 PM36 °FChilly.3 mph64%30.47 "HgN/A
8:00 PM40 °FQuite cool.6 mph55%30.45 "HgN/A
7:00 PM44 °FOvercast.7 mph53%30.42 "Hg16 mi
6:00 PM45 °FQuite cool.7 mph54%30.40 "HgN/A
5:00 PM46 °FCool.2 mph62%30.36 "HgN/A
4:00 PM47 °FPartly sunny.6 mph60%30.35 "Hg19 mi
3:00 PM51 °FCool.7 mph50%30.33 "HgN/A
2:00 PM50 °FCool.6 mph58%30.34 "HgN/A
1:00 PM50 °FPartly sunny.5 mph66%30.36 "Hg11 mi
12:00 PM48 °FCool.6 mph68%30.37 "HgN/A
11:00 AM45 °FQuite cool.3 mph80%30.40 "HgN/A
Weather by CustomWeather, © 2014

See weather overviewHow to use our weather pages